Wind_Speed
15 14 15 18 22 24 26 27 28 27 26 25 24 22 20 19 18 18 18 18 18 17 17 17 16 16 15 15 14 15 16 17 18 18 18 18 18 18 18 18 18 18 17 16 16 15 15 15 15 14 14 14 14 14 13 12 12 12 13 14 14 15 15 16 16 16 17 17 18
15 16 20 24 26 28 28 28 27 25 23 20 17 15 15 15 15 16 17 17 17 17 18 17 17 17 17 16 16 16 17 18 19 19 19 19 19 19 19 19 19 18 18 17 17 16 16 16 16 16 15 14 14 13 13 12 12 12 13 14 15 15 16 16 17 17 18 18 18
17 19 22 27 29 29 29 27 25 23 20 17 14 13 13 14 14 15 15 16 16 17 17 17 17 17 17 18 18 18 19 19 20 20 19 19 19 19 19 19 19 19 18 18 17 17 17 17 17 16 16 15 14 14 13 13 12 13 13 14 15 16 16 17 17 17 17 17 17
19 22 25 27 28 28 27 25 23 20 17 14 14 14 14 14 14 14 14 14 15 15 15 15 16 17 18 19 19 20 20 20 20 20 20 20 19 19 19 19 18 18 18 18 18 18 18 17 17 16 16 15 15 14 14 13 13 14 14 15 15 16 16 17 17 17 17 16 16
22 24 26 26 26 24 22 19 17 14 12 13 13 14 15 15 14 14 13 13 13 13 14 15 16 17 19 20 21 21 21 20 20 20 20 20 20 19 18 18 18 18 18 18 18 18 18 17 17 16 16 15 15 15 14 14 15 15 16 16 16 16 16 16 16 16 16 16 15
24 25 25 25 23 20 15 12 10 10 10 11 13 14 14 14 14 13 12 11 11 12 14 16 18 19 20 21 21 21 21 20 20 20 20 20 20 19 18 18 18 18 18 18 18 18 17 17 17 16 15 14 14 15 15 15 16 16 17 17 17 16 16 16 16 16 16 16 15
24 25 25 24 20 14 9 9 9 10 11 11 12 12 12 12 11 10 10 10 11 13 16 18 19 20 21 21 21 21 21 21 20 20 20 20 20 19 19 18 18 18 19 19 18 17 17 16 16 16 15 14 14 14 15 15 16 17 18 18 18 17 17 16 16 15 15 16 16
24 24 24 22 15 10 9 12 13 14 14 13 12 11 10 9 8 8 9 11 13 15 17 19 20 20 21 21 21 21 21 21 21 20 20 20 20 19 19 18 18 18 19 18 18 17 17 16 16 16 15 15 14 14 15 15 15 16 17 18 19 18 17 16 16 16 16 16 16
22 22 21 20 16 12 10 11 13 14 14 13 12 10 9 9 10 11 12 13 15 17 19 19 20 20 20 20 21 21 21 21 21 21 20 20 20 19 19 19 18 18 18 18 18 18 18 17 17 17 16 16 16 15 15 14 15 15 17 18 18 18 18 17 16 16 17 17 17
19 19 19 20 19 16 11 8 10 13 14 13 11 11 12 12 14 14 15 15 17 18 18 18 18 18 19 19 20 21 21 21 21 21 21 21 20 20 19 19 19 19 19 18 18 18 18 18 19 19 18 18 17 16 15 15 15 15 16 17 18 19 19 18 17 17 17 18 18
18 18 18 18 18 16 14 11 12 12 12 12 12 13 14 14 15 15 16 16 17 18 18 17 17 18 18 19 20 21 21 21 21 22 22 22 21 21 20 20 20 20 20 20 19 19 19 20 20 20 19 18 17 16 16 16 16 17 18 18 19 19 19 18 17 18 18 18 18
17 16 16 15 15 15 14 14 13 12 12 13 13 13 14 14 15 15 16 16 17 16 16 16 16 17 19 20 21 21 21 22 22 22 22 22 22 22 22 22 22 22 22 22 21 20 20 20 20 20 19 18 17 17 18 18 18 19 19 19 19 19 18 18 18 18 18 18 18
16 16 16 15 15 14 15 15 15 14 14 14 13 14 14 15 16 16 16 15 15 15 15 16 17 18 19 20 21 21 22 22 23 23 23 23 22 22 22 22 23 23 22 22 21 21 20 20 19 19 19 18 18 18 18 18 18 18 18 18 18 18 18 18 18 18 18 18 17
16 17 17 16 15 14 14 15 16 15 14 13 15 16 16 16 15 15 14 14 14 14 15 16 17 18 19 20 21 22 22 23 23 24 24 23 23 23 23 22 22 22 21 20 20 19 19 19 19 19 19 19 18 18 17 16 16 16 16 16 16 16 17 17 18 17 17 17 16
18 18 18 17 15 14 13 14 14 14 15 15 16 16 15 14 13 13 13 13 14 15 16 16 17 18 19 20 21 22 23 23 24 24 24 24 23 23 22 22 21 20 19 18 17 17 16 16 17 17 17 18 17 16 15 13 13 13 14 14 14 14 15 15 15 15 15 14 14
19 19 19 17 16 15 14 14 14 15 15 15 14 13 13 12 12 13 13 14 15 15 16 16 17 18 19 20 21 22 22 23 22 22 22 22 22 21 21 20 19 18 17 16 15 14 14 14 14 15 16 16 16 15 13 11 11 11 11 11 11 11 12 13 13 13 12 12 12
19 19 18 17 16 16 15 15 15 15 14 13 12 12 12 12 13 14 14 14 15 15 16 17 18 19 20 20 20 20 21 21 20 20 20 20 20 19 19 18 17 15 15 14 14 13 13 12 12 12 12 13 13 12 11 9 9 8 8 8 8 9 10 11 11 11 11 11 11
18 18 17 17 16 16 17 16 16 15 14 13 12 12 13 14 15 15 15 15 15 15 16 17 18 18 19 19 19 19 19 18 18 18 17 17 17 17 17 16 14 13 13 12 13 13 12 11 10 9 8 8 9 9 8 8 7 6 6 6 6 7 8 9 9 9 9 9 10
18 18 18 18 18 18 18 17 16 15 14 14 14 14 15 15 15 15 15 15 15 15 16 17 17 18 18 18 18 17 17 16 16 16 16 16 15 15 14 14 13 12 12 11 11 10 10 9 7 6 6 6 6 6 6 6 6 6 5 5 6 6 7 7 8 8 9 9 10
19 19 19 19 19 18 18 17 16 15 15 15 15 15 15 15 15 15 15 15 15 15 16 17 17 17 17 16 16 16 15 14 14 14 14 14 13 13 12 12 11 11 10 9 8 8 7 7 7 6 6 6 6 6 6 6 6 6 6 6 7 7 8 9 10 11 12 13 14
19 19 19 18 17 17 16 16 15 15 15 16 16 16 16 15 15 15 15 16 16 16 16 16 16 16 15 15 14 14 13 12 12 11 11 11 11 10 10 10 9 8 8 7 7 7 7 8 8 7 7 7 7 8 8 8 8 9 9 10 10 11 12 13 14 15 15 16 16
20 19 18 17 16 15 15 15 15 15 15 16 16 16 16 16 16 16 16 16 16 15 15 15 15 14 14 13 12 12 12 11 10 9 9 9 9 9 9 9 9 8 7 8 8 8 9 9 9 10 10 10 11 11 11 11 11 12 12 13 14 14 15 15 16 16 16 17 17
19 18 17 15 15 15 15 15 15 15 15 16 16 16 16 16 17 17 16 16 15 14 14 14 13 12 12 11 11 11 11 10 10 9 8 9 9 9 9 9 9 8 8 8 7 8 9 11 12 13 13 13 13 13 13 13 12 12 13 14 14 15 15 16 16 16 17 17 18
18 17 15 15 14 15 15 15 15 15 15 15 15 15 16 16 17 16 16 15 14 13 12 12 12 12 12 11 11 11 11 10 10 9 8 10 9 9 9 9 9 9 8 8 9 11 12 14 14 15 15 14 14 13 13 12 13 13 13 14 15 15 16 16 16 17 17 18 18
17 15 14 14 14 14 14 15 15 14 14 14 14 14 14 15 15 14 14 13 12 12 12 11 11 11 11 11 11 11 11 10 10 10 10 11 11 11 12 11 11 10 10 11 13 13 13 14 14 14 14 13 13 12 12 13 13 13 14 15 15 16 17 17 18 18 18 19 19
15 14 13 13 13 13 14 14 13 12 12 12 12 12 12 12 12 12 11 11 11 11 11 11 11 11 11 11 11 12 12 12 11 11 12 12 13 13 14 13 13 12 12 13 13 13 13 12 12 12 12 12 12 12 12 13 13 14 15 16 16 17 18 18 19 19 19 19 20
14 14 13 13 13 12 12 12 11 11 11 11 11 10 10 10 10 10 10 10 10 10 10 11 11 11 11 11 12 12 12 12 12 13 13 13 13 13 13 12 12 12 12 12 12 12 12 11 11 11 11 12 12 12 13 13 14 15 16 16 17 18 18 19 19 20 20 20 19
14 13 12 12 11 11 10 10 10 10 10 10 10 10 9 9 10 10 10 11 11 11 11 12 12 12 12 12 12 12 12 12 12 12 12 12 11 11 11 11 11 12 12 12 12 12 12 12 12 12 12 12 12 13 13 13 14 15 16 16 17 17 18 19 19 19 19 19 19
12 11 10 9 10 10 10 10 10 10 10 10 10 10 10 11 11 12 12 12 12 12 12 12 12 12 12 12 12 12 12 12 11 11 10 10 10 10 11 11 12 12 12 12 11 11 10 10 11 11 11 11 11 11 11 13 14 15 16 16 17 18 18 19 19 19 19 19 19
9 8 8 9 9 10 10 10 11 10 10 10 11 11 11 12 12 12 12 12 12 12 11 11 11 11 11 11 11 11 11 10 10 10 10 10 10 10 10 11 12 12 11 11 9 9 8 8 8 8 8 8 8 9 11 12 14 15 16 17 18 19 19 20 20 21 20 20 20
8 8 8 9 10 10 11 11 11 11 11 11 11 11 11 11 11 11 11 11 11 10 10 10 10 9 9 9 9 9 10 9 9 9 9 10 10 10 11 12 13 11 9 7 6 6 6 6 6 7 7 8 9 10 11 13 15 16 17 18 19 20 20 20 21 21 21 20 20
8 9 9 10 10 11 11 11 11 11 10 10 10 10 9 8 8 8 9 9 9 9 8 9 9 8 8 8 8 9 9 9 9 10 10 10 11 11 12 13 13 9 5 5 4 4 5 6 7 8 9 10 12 13 14 14 16 17 18 19 20 20 21 21 21 20 20 20 19
9 10 10 11 11 10 10 10 10 10 9 9 9 8 7 7 6 7 7 8 8 8 7 8 8 8 8 9 9 9 9 9 9 10 10 10 11 11 12 14 12 6 3 3 3 4 6 7 9 10 11 13 15 15 15 16 17 18 18 19 19 20 20 20 20 20 19 19 19
11 11 10 10 9 9 8 8 8 8 8 7 7 7 7 7 7 7 7 7 8 8 8 8 9 9 9 9 9 9 9 9 9 9 10 10 10 10 11 13 10 5 1 3 5 7 8 10 11 13 14 15 16 16 15 16 17 18 18 19 19 20 20 20 20 19 19 19 18
10 10 9 8 7 7 7 7 6 6 7 7 7 7 8 8 8 8 8 8 8 9 9 9 10 9 10 10 10 10 10 10 10 9 9 10 10 10 11 12 9 7 7 8 9 10 11 12 13 15 16 16 16 15 15 16 17 18 18 19 19 19 19 19 19 19 19 19 18
9 8 7 6 6 6 6 6 7 7 7 8 8 9 9 9 9 9 9 9 9 9 10 10 10 10 10 10 10 10 10 10 10 9 9 9 9 9 10 11 9 9 10 11 12 13 13 14 15 16 16 16 14 14 15 16 16 17 18 18 19 19 19 19 19 18 18 18 18
7 6 6 6 6 6 7 7 7 8 9 9 9 10 10 10 10 10 10 10 10 10 11 11 11 11 11 11 11 11 11 10 10 9 8 8 8 9 10 10 10 10 10 11 12 13 14 14 15 16 16 14 13 14 15 16 16 17 17 18 19 19 18 18 18 18 18 18 18
6 6 6 7 7 7 8 8 9 9 10 10 10 10 10 10 10 10 10 10 11 11 12 12 12 12 11 11 11 10 10 10 10 9 9 8 8 8 9 10 11 10 10 11 12 12 13 14 15 15 15 13 13 14 15 15 16 17 17 18 18 18 18 18 17 17 17 17 17
6 7 7 7 7 8 9 9 10 10 10 10 10 10 10 10 10 11 11 11 12 12 13 13 13 12 12 11 11 10 10 10 10 10 9 9 9 8 8 9 10 10 10 11 11 12 13 14 14 15 14 13 13 13 14 15 16 17 17 18 18 18 18 17 17 17 17 17 16
6 6 7 7 8 8 9 10 10 11 11 11 11 10 10 10 11 11 12 12 13 13 13 13 13 13 12 12 11 10 10 9 10 11 10 10 10 10 9 9 9 10 10 10 10 11 12 13 14 14 13 11 12 13 14 15 16 17 17 17 17 17 17 17 16 16 16 17 17
6 6 7 8 8 9 9 10 11 11 11 11 11 11 11 11 11 12 13 13 14 13 13 13 13 13 13 13 12 11 10 9 10 11 12 11 11 11 10 10 10 10 10 10 10 10 12 13 14 13 12 11 11 12 14 15 15 16 17 17 17 17 17 17 17 16 17 17 17
Wind_Direction
268 273 284 296 302 304 302 299 295 291 288 287 285 284 283 281 279 279 281 284 286 287 287 285 283 282 282 283 288 292 295 295 293 292 289 286 283 278 273 269 265 262 257 251 247 244 243 244 243 243 244 244 245 244 243 241 241 244 246 249 252 256 259 262 265 267 267 267 265
276 286 295 301 303 302 298 293 289 285 284 283 282 280 280 279 280 282 285 287 288 288 288 287 286 285 286 289 292 294 294 293 292 290 287 284 281 278 274 269 265 261 256 251 247 244 243 243 244 245 245 244 243 242 240 239 241 245 250 254 257 261 264 266 268 269 269 267 264
286 295 299 302 301 299 295 290 286 283 281 279 276 276 278 280 282 284 286 288 288 288 288 288 289 290 292 292 292 291 290 290 290 288 285 283 280 276 273 269 265 260 255 251 247 245 245 245 246 246 246 244 242 239 239 239 242 247 252 257 260 263 265 267 268 268 267 265 262
294 300 302 302 300 296 292 289 285 282 278 276 276 278 281 282 284 286 287 288 289 289 289 291 294 295 294 291 289 287 287 288 289 288 286 282 278 275 272 269 265 261 256 251 248 247 247 247 247 246 245 244 242 240 240 243 246 249 253 257 261 264 265 266 266 265 262 260 258
301 304 304 302 299 296 292 288 286 283 280 279 281 283 284 284 285 286 288 289 292 294 297 298 298 296 292 288 286 285 286 288 289 289 286 282 278 275 271 268 265 262 258 253 250 248 247 246 246 246 245 244 243 243 246 250 252 254 256 259 262 263 263 262 261 259 257 255 254
303 305 305 304 301 298 292 289 287 286 286 287 288 287 287 286 286 288 292 297 301 302 301 298 294 291 288 287 286 287 288 289 290 289 287 283 279 275 271 268 265 262 258 255 252 249 246 245 246 246 245 245 246 249 252 254 256 258 260 262 262 261 259 258 257 257 255 253 252
302 303 303 304 304 302 294 287 286 286 288 290 290 290 289 289 290 295 300 302 303 298 293 289 286 286 287 289 290 290 290 290 289 288 286 284 280 275 271 268 264 261 259 256 253 249 246 244 245 245 245 247 250 253 255 256 258 261 262 263 262 259 256 254 254 255 254 252 251
302 302 303 305 307 305 292 285 283 283 284 285 286 287 287 284 284 289 291 290 287 284 282 280 281 284 287 291 293 293 292 290 288 286 284 282 280 276 272 267 264 261 259 256 253 249 246 244 243 244 246 248 251 253 255 256 259 263 265 265 263 259 255 253 253 253 252 251 249
304 304 304 304 301 296 292 290 285 283 283 284 283 280 274 269 272 276 279 280 279 277 277 278 281 286 290 293 295 295 293 291 288 286 283 281 279 275 271 268 264 261 258 255 251 249 246 244 244 245 247 249 252 254 255 257 261 264 266 265 263 261 258 255 253 252 250 249 248
304 302 301 300 294 291 291 295 289 285 281 277 272 265 263 268 275 279 280 278 277 276 277 280 285 290 294 297 296 295 293 291 288 286 283 280 277 274 271 267 264 261 257 253 249 247 246 246 247 248 249 251 252 253 255 258 261 263 263 262 262 262 261 259 256 253 251 250 249
300 300 301 300 296 292 288 286 287 284 276 267 262 263 268 275 280 281 279 277 276 277 279 284 290 295 297 297 295 293 291 290 288 285 282 279 276 274 271 268 265 261 258 253 249 247 247 248 249 250 250 249 250 252 255 258 258 258 257 256 257 259 260 260 259 257 255 254 253
302 302 303 302 300 295 290 286 284 278 270 266 268 273 279 281 280 277 275 274 275 279 284 289 293 295 295 293 292 291 291 289 287 284 281 278 276 274 272 269 266 262 259 256 252 250 250 250 250 250 249 248 249 252 256 258 258 256 254 252 253 254 257 259 259 260 259 259 258
308 306 304 302 301 297 292 286 279 273 271 272 276 279 280 279 276 274 273 275 279 284 289 292 292 292 291 291 291 292 291 290 287 284 281 279 277 275 272 269 266 263 261 258 255 254 253 252 252 252 252 252 253 256 259 261 263 263 261 258 256 255 257 259 261 263 264 264 263
309 306 303 300 298 294 288 281 276 274 274 277 279 279 278 276 275 274 276 281 286 289 291 292 291 290 290 291 292 293 292 290 288 285 282 280 278 275 272 269 266 263 261 259 257 256 256 257 257 257 259 260 261 263 266 270 273 273 272 269 266 264 264 266 268 270 271 271 270
310 307 304 300 296 291 285 281 279 279 280 280 279 278 277 276 277 280 284 288 290 290 290 290 290 291 291 293 293 293 293 291 289 286 283 281 278 275 272 270 267 265 263 262 260 260 261 263 265 266 267 268 270 272 276 279 279 278 276 275 274 274 274 275 277 278 279 278 276
313 311 308 303 298 292 288 286 286 286 285 282 280 278 278 280 284 287 289 290 289 288 288 289 291 293 294 294 294 294 294 292 290 287 284 281 279 277 274 272 271 269 268 267 267 268 270 272 275 276 276 275 276 279 281 281 277 274 274 276 279 281 282 283 284 285 284 282 279
316 315 312 307 301 297 293 291 291 290 288 285 283 282 284 287 289 290 289 287 287 288 289 291 293 295 296 296 296 295 294 293 291 288 285 283 281 280 279 277 275 274 273 275 277 279 281 282 283 282 281 281 282 284 285 283 275 273 276 282 286 287 286 287 288 288 287 285 281
319 318 316 312 307 304 301 298 296 294 292 290 289 289 289 290 290 289 288 287 287 290 292 295 296 296 296 296 296 296 295 294 292 290 288 287 286 285 284 283 281 279 280 282 286 289 292 293 294 293 291 291 290 291 292 292 288 288 291 294 293 290 287 288 290 291 292 292 290
320 319 318 315 313 310 309 306 304 301 299 297 295 294 293 293 292 291 291 290 291 294 297 298 298 297 296 296 297 297 297 296 295 294 293 292 292 292 291 290 288 288 290 294 297 301 305 309 317 321 319 314 309 306 304 305 304 305 305 303 298 295 295 297 299 300 300 299 296
319 320 319 318 317 316 316 315 313 310 306 303 301 300 299 298 297 297 297 298 300 301 301 300 299 297 297 297 298 300 302 302 302 301 301 301 302 303 303 301 300 303 309 317 321 326 331 335 342 344 342 337 332 326 322 320 319 319 318 314 307 305 304 303 301 299 295 291 288
321 321 322 322 323 324 325 324 321 317 313 310 308 307 305 304 305 306 307 307 307 305 302 300 298 297 298 300 303 307 311 313 314 314 315 317 320 323 325 325 324 329 341 360 4 3 3 5 3 359 355 352 348 344 340 337 334 329 323 316 309 303 299 295 291 288 284 281 278
323 325 326 328 331 332 332 330 327 323 320 317 315 314 313 314 315 316 315 313 309 306 303 301 301 302 305 310 315 320 325 328 331 333 336 340 341 345 351 356 356 357 10 27 31 26 18 10 3 358 354 350 345 340 335 330 325 318 312 306 301 295 291 287 282 279 275 272 269
325 327 329 332 334 335 334 331 329 326 323 322 321 322 323 325 326 323 320 316 313 311 311 312 314 319 325 332 338 341 343 345 348 351 356 2 3 3 4 7 11 15 22 28 22 11 360 351 347 345 344 341 336 331 325 319 314 308 302 297 293 288 284 280 276 274 271 269 267
326 328 329 331 331 332 331 330 328 326 325 325 326 328 329 330 329 326 324 323 325 328 330 334 339 345 351 355 358 0 1 0 4 5 8 12 11 9 7 7 8 10 9 3 350 342 339 338 336 335 334 332 328 322 316 311 305 300 295 290 287 283 280 276 274 272 271 270 269
328 330 331 333 332 332 332 330 329 328 327 327 329 332 334 333 332 333 335 339 343 348 351 355 359 5 9 9 12 15 16 15 14 11 9 9 6 3 0 358 354 350 345 339 336 335 335 334 332 329 325 322 316 311 306 301 297 293 288 285 282 279 277 275 273 272 271 271 270
334 337 339 342 342 340 337 334 333 335 337 338 340 341 342 341 342 345 350 355 360 4 7 9 12 16 18 17 17 18 17 16 12 8 3 360 357 354 351 347 342 337 332 329 328 329 330 329 325 320 314 309 303 300 297 294 291 287 283 280 278 277 276 275 275 273 272 270 269
344 347 347 348 348 349 349 350 352 353 354 354 356 356 356 357 1 5 9 12 13 14 15 16 16 16 15 13 11 9 8 6 3 360 356 354 351 349 345 340 335 328 322 318 317 317 317 316 314 310 304 299 294 291 289 287 284 282 279 277 276 276 276 275 275 275 274 273 272
351 351 353 355 1 5 7 9 10 11 11 11 13 14 17 21 23 24 22 21 19 16 14 13 10 7 5 4 2 0 359 357 354 351 348 346 342 338 333 328 321 315 309 305 302 300 301 303 304 302 298 293 289 286 283 281 280 279 279 279 279 279 279 278 278 278 279 279 278
355 358 5 13 19 21 23 24 24 23 24 24 26 28 31 32 30 27 24 20 15 13 10 6 2 360 358 355 353 350 348 346 344 340 336 332 328 324 320 314 307 301 296 291 287 287 289 293 295 295 293 290 287 283 280 280 282 283 284 285 285 285 285 285 285 285 285 285 285
3 10 21 28 29 30 30 32 32 31 31 31 30 30 30 28 24 20 16 12 8 5 1 357 354 351 349 345 342 339 337 334 331 328 324 319 314 309 304 301 299 296 289 279 276 278 282 287 290 291 290 289 287 286 285 286 287 288 288 288 288 287 288 288 288 287 287 287 286
13 20 26 31 33 35 35 34 34 32 29 27 25 24 22 19 16 12 8 5 1 357 353 350 345 340 335 332 330 327 324 320 317 314 311 307 305 304 303 301 301 298 288 272 269 275 283 290 293 294 293 293 292 292 292 291 290 289 287 286 286 285 285 285 284 284 284 285 286
18 23 27 30 35 37 35 32 28 25 23 20 18 15 13 11 8 5 1 357 353 348 343 338 334 326 319 315 314 311 308 307 308 309 309 309 308 308 306 303 308 297 267 262 267 282 296 304 305 304 301 300 300 298 295 291 289 287 285 284 283 283 282 282 282 283 285 286 287
22 26 30 31 32 31 28 25 21 17 15 13 10 7 3 359 357 355 351 348 342 335 328 322 317 312 307 306 306 305 305 305 307 308 309 309 309 309 306 304 312 300 233 251 284 308 317 317 316 313 310 308 307 304 298 291 288 286 285 284 283 283 283 284 285 287 289 290 290
26 28 30 30 27 23 19 16 12 8 6 3 0 356 351 347 343 341 339 334 329 324 318 312 307 304 303 303 303 303 304 304 305 306 308 309 309 310 308 306 312 321 352 340 332 328 325 322 320 318 316 314 313 307 299 293 290 288 287 287 287 287 288 289 290 291 292 292 292
29 27 27 24 19 14 8 4 1 358 355 351 349 345 342 339 335 331 327 322 318 315 311 308 305 303 304 305 306 307 307 306 306 307 308 310 311 312 310 308 309 327 346 340 333 327 323 321 320 319 319 318 314 306 299 296 293 291 291 291 291 292 292 293 294 294 294 294 293
30 26 19 13 7 2 356 352 349 347 345 343 340 337 335 333 329 325 320 315 311 308 308 309 309 308 309 311 313 314 313 312 310 309 309 311 312 312 311 309 307 317 327 327 323 319 317 317 318 320 322 321 313 306 301 299 296 295 295 295 295 295 296 296 297 297 296 295 294
25 16 8 1 355 350 346 343 341 340 340 338 336 333 330 327 325 322 319 315 312 310 310 312 314 315 317 318 319 318 317 316 313 310 308 307 307 308 309 309 308 311 316 316 314 313 312 314 318 322 324 323 315 308 305 302 300 298 297 297 297 297 299 300 300 300 298 297 295
12 4 358 352 347 344 340 337 335 334 333 332 329 327 325 323 322 323 322 320 318 317 317 318 318 319 320 320 319 318 317 315 312 307 303 299 299 302 305 308 309 309 309 310 310 309 310 312 317 323 327 326 318 312 309 306 303 301 300 300 300 300 301 301 301 299 297 295 293
358 354 348 342 339 337 335 334 331 328 325 324 322 322 322 322 325 327 327 326 325 323 322 321 321 320 319 317 315 313 313 314 313 308 300 293 293 295 297 303 306 307 308 308 308 307 308 311 317 324 330 330 323 318 314 310 306 304 303 303 302 302 302 301 300 298 296 295 293
346 340 336 332 330 330 330 329 327 325 322 320 319 319 321 325 328 331 331 330 328 327 324 322 320 319 318 315 311 309 308 311 314 311 303 296 294 290 288 291 295 301 306 308 308 307 308 310 314 322 329 331 327 323 318 314 309 307 306 305 305 304 303 302 301 299 298 297 296
332 326 325 324 323 323 324 325 325 325 324 323 322 322 323 326 329 331 331 330 329 327 324 322 320 319 318 315 311 307 305 307 311 311 307 302 298 291 287 286 290 296 302 306 307 307 306 306 309 316 324 329 329 326 323 318 314 312 310 309 307 306 306 304 303 301 300 299 298
Height
805 804 804 803 803 802 802 802 801 801 800 798 797 797 796 796 796 796 796 797 797 797 797 797 796 796 795 794 793 793 793 793 792 792 791 789 788 787 787 786 786 786 786 786 786 786 787 787 787 787 786 786 786 786 786 787 787 787 787 788 788 788 788 788 787 787 787 787 787
804 803 802 802 801 801 801 800 799 798 797 797 796 796 796 795 795 795 796 796 796 797 797 797 797 796 795 794 794 793 793 792 791 790 789 788 787 786 786 785 784 784 784 784 784 784 785 785 785 785 785 785 785 785 785 786 786 786 787 787 787 787 787 786 786 786 785 785 785
802 802 801 800 800 799 798 797 796 796 795 795 795 795 795 795 795 795 795 795 796 796 796 797 797 796 796 795 794 793 792 791 790 789 788 787 786 785 784 784 783 783 783 783 783 783 783 783 784 784 784 784 784 784 784 784 785 785 785 785 786 786 785 785 784 784 784 783 783
801 801 800 799 798 797 797 795 794 794 794 794 794 794 794 794 794 794 794 795 795 795 796 796 796 796 795 795 793 792 791 790 789 787 787 786 785 784 783 782 782 782 782 782 782 782 782 782 783 782 782 783 783 783 783 783 783 783 784 784 784 784 784 783 783 783 782 782 782
800 800 799 798 797 796 795 794 793 793 793 793 793 793 793 793 793 794 794 794 795 795 796 796 796 795 794 793 792 791 790 788 787 787 785 784 784 783 782 782 781 781 781 781 781 781 781 782 782 782 782 782 782 782 782 782 782 782 782 782 782 782 782 782 782 782 781 781 781
799 798 798 797 796 795 794 793 793 793 793 793 793 793 793 793 793 793 794 794 794 794 795 795 795 794 793 792 791 789 788 787 786 785 784 783 782 782 781 780 780 780 780 780 780 780 780 781 781 781 781 781 781 781 781 781 781 781 781 780 781 781 781 780 780 780 780 779 779
798 797 797 796 795 794 793 793 793 793 793 793 793 792 793 793 793 793 792 792 793 793 794 794 794 793 792 790 789 788 787 786 785 784 783 782 781 780 779 779 778 778 778 778 779 779 780 780 780 780 780 780 780 780 780 780 780 779 779 779 779 779 779 778 778 778 778 778 778
797 797 796 796 795 794 793 792 792 792 792 792 792 792 792 792 792 791 791 791 792 792 793 793 792 791 790 789 788 787 786 785 784 783 782 781 780 779 778 777 777 776 776 777 778 778 779 779 779 779 779 779 779 778 778 778 778 778 778 778 778 777 777 776 776 777 777 777 777
796 796 795 795 794 793 792 791 791 791 791 791 791 791 790 790 790 790 790 790 791 792 792 791 790 790 789 788 787 786 785 784 783 782 781 780 778 777 776 776 776 775 775 776 776 777 777 778 778 778 778 778 777 777 776 777 777 777 777 778 777 777 776 775 775 775 776 776 776
796 795 794 794 793 792 791 790 790 790 790 790 790 789 789 789 789 789 790 790 790 790 790 789 789 788 788 787 787 786 784 783 782 780 779 778 777 776 775 774 774 774 774 774 775 776 776 776 776 776 776 776 776 775 775 776 776 776 776 777 777 776 775 774 774 774 774 774 774
795 794 793 792 792 791 791 790 790 790 789 789 788 788 788 788 788 789 789 789 789 789 788 788 788 787 787 787 786 785 783 782 781 779 778 777 776 775 774 773 773 772 772 773 773 774 774 775 775 774 774 774 774 774 774 774 774 775 775 775 775 775 775 774 774 773 773 773 773
794 794 793 792 791 791 790 790 789 789 788 787 787 787 788 788 788 788 788 788 787 787 787 787 787 787 787 786 785 783 782 781 779 778 776 776 774 773 773 772 771 771 771 771 771 772 772 773 773 773 772 772 772 772 772 772 772 772 772 772 773 773 773 773 773 773 773 772 772
794 793 792 792 791 790 790 789 788 788 787 787 787 787 787 787 787 787 787 786 786 786 786 786 786 786 785 784 783 782 781 780 778 776 775 774 773 772 771 771 770 770 770 770 771 771 771 771 771 771 771 771 771 771 771 771 771 770 770 771 771 771 772 772 773 772 772 772 772
793 792 792 791 790 790 789 788 787 787 787 787 787 787 787 786 786 786 786 785 785 785 785 785 785 784 784 783 782 781 780 778 777 776 774 773 772 771 771 770 769 769 769 769 770 770 771 771 771 771 770 770 769 769 770 770 770 770 770 770 771 771 772 772 772 772 772 772 772
792 792 791 790 790 789 788 788 787 787 786 786 786 786 786 785 785 785 785 785 785 785 784 784 783 783 782 782 781 779 778 776 776 774 773 772 771 770 769 769 768 768 769 769 770 770 771 771 771 770 770 769 769 769 769 769 769 770 770 771 771 771 771 772 772 772 772 772 772
792 791 790 790 789 789 788 787 787 786 785 785 785 785 785 785 785 785 785 784 784 784 783 783 782 781 781 780 779 778 776 775 774 773 771 771 770 769 768 768 768 768 769 769 770 770 771 771 770 770 769 769 768 768 768 768 769 770 770 770 770 771 771 771 771 771 771 771 771
791 791 790 789 789 788 788 787 786 785 785 784 784 784 784 784 784 784 784 783 783 782 782 781 781 780 779 778 777 776 775 774 772 771 770 769 768 768 767 767 768 768 769 770 770 770 771 770 770 770 769 769 768 768 768 768 769 769 769 769 769 770 770 770 771 771 771 771 771
791 790 789 789 788 787 787 786 786 785 785 784 784 784 784 784 784 783 783 782 782 782 781 780 780 779 778 777 776 775 774 772 771 770 769 769 768 767 767 767 768 769 769 770 770 770 770 770 770 769 769 768 768 768 768 768 768 768 768 769 769 769 770 770 770 771 771 771 771
790 789 788 788 787 787 786 786 785 785 785 785 784 784 784 783 783 783 782 782 781 781 780 779 778 777 777 776 775 774 772 771 771 770 769 768 768 767 767 768 768 769 769 770 770 770 770 770 770 769 769 769 768 768 768 768 768 768 768 768 769 769 770 770 770 770 770 771 771
789 788 787 787 787 786 786 786 786 786 786 785 785 784 784 783 783 782 782 781 780 780 779 778 777 776 776 775 774 773 772 771 771 770 769 769 768 768 768 769 769 769 770 770 770 770 770 770 770 770 770 770 769 769 769 768 768 768 768 769 769 769 769 769 769 769 770 770 770
788 787 787 787 787 786 786 786 786 786 786 785 785 784 784 783 783 782 782 781 780 779 778 778 777 776 775 774 773 772 772 771 771 771 770 770 770 769 769 769 770 770 770 770 769 770 770 771 771 771 771 770 770 770 769 769 769 769 769 769 769 769 769 769 769 769 769 769 769
788 787 787 787 787 787 787 786 786 786 786 786 785 785 784 783 783 782 781 780 780 779 778 777 776 775 775 774 773 772 772 771 771 771 771 771 771 770 770 770 770 770 770 769 769 769 770 770 771 771 771 771 770 770 770 770 769 769 769 769 769 769 769 769 769 768 768 768 767
788 788 788 787 787 787 787 787 787 787 786 786 785 785 784 784 783 782 782 781 780 779 778 777 776 776 775 774 773 773 772 772 772 771 771 771 771 771 771 771 771 771 770 769 769 769 770 770 770 770 770 770 771 771 771 770 770 770 769 769 769 769 769 768 768 767 767 766 766
788 788 788 788 788 788 787 787 787 787 787 786 786 785 784 783 783 782 782 781 780 779 778 777 776 776 775 775 774 774 773 773 773 772 772 772 772 771 771 771 771 771 771 770 770 770 769 769 769 769 770 770 771 771 771 771 770 769 769 769 768 768 767 767 767 766 766 765 764
789 789 789 789 788 788 788 787 787 787 786 786 785 784 784 783 783 783 782 781 780 779 778 778 777 776 776 776 775 775 774 774 774 773 773 772 772 772 771 771 771 771 771 771 770 770 770 770 770 770 770 771 771 771 771 770 770 769 769 768 768 767 766 766 765 765 764 763 762
790 790 789 789 789 788 788 787 787 787 786 785 785 784 784 783 783 783 782 782 781 780 779 779 778 777 777 776 776 776 775 775 775 774 774 773 773 772 772 772 771 771 771 771 771 770 770 770 770 770 770 770 770 770 770 769 769 769 768 767 767 766 765 764 763 763 762 761 761
791 791 790 789 789 788 788 787 787 787 786 785 785 784 784 784 783 783 782 782 781 780 780 779 779 778 778 777 777 776 776 776 775 775 774 774 773 773 773 772 772 772 771 771 771 771 770 770 769 769 769 769 769 769 769 769 768 768 767 766 766 764 763 762 761 761 760 759 758
792 791 791 790 789 788 788 787 787 787 786 786 785 785 784 784 784 783 782 782 781 781 780 780 780 779 779 778 778 777 777 776 776 775 775 774 774 774 773 773 772 771 771 771 770 770 770 769 769 769 768 768 768 768 768 768 767 767 766 765 764 762 761 761 760 759 758 757 756
792 792 791 790 790 789 788 788 788 787 787 787 786 786 785 785 784 784 783 782 782 782 781 781 780 780 779 779 778 778 777 776 776 776 775 775 774 774 773 772 771 771 770 769 769 769 769 769 768 768 768 768 768 768 768 767 767 766 765 764 762 761 760 759 758 757 756 756 755
792 792 791 791 790 790 789 789 788 788 788 787 787 786 786 785 785 784 783 783 782 782 782 781 781 780 780 779 778 778 777 777 776 776 775 775 774 773 773 772 771 770 769 768 768 768 768 768 768 767 767 767 768 768 768 767 766 765 764 763 762 761 760 759 758 757 756 755 754
793 792 792 791 791 791 790 790 789 789 788 788 787 787 786 786 785 784 784 783 783 782 782 781 781 780 780 779 778 778 777 776 776 776 775 774 774 773 772 771 770 769 768 767 767 767 767 767 767 767 767 767 767 767 767 766 766 765 764 762 761 760 759 758 757 756 755 754 753
793 793 792 792 792 792 791 791 790 790 789 788 788 787 787 786 785 784 784 783 782 782 781 781 780 780 779 778 778 777 777 776 776 775 775 774 773 772 772 771 770 769 767 766 767 767 767 767 767 767 767 767 767 766 766 766 765 764 762 761 760 759 758 757 756 755 754 753 752
794 794 793 793 793 792 792 792 791 790 789 789 788 787 787 786 785 784 783 782 782 781 781 780 779 779 778 778 777 777 776 776 775 775 774 774 773 772 771 770 770 768 766 767 767 767 767 767 767 767 766 766 766 766 765 764 763 762 761 760 758 757 756 755 754 753 753 752 751
796 795 795 794 794 793 792 792 791 790 789 789 788 787 786 785 785 784 783 782 782 781 780 780 779 778 778 777 777 776 776 775 775 774 774 773 772 772 771 770 770 768 766 766 766 766 766 766 766 766 766 766 765 764 764 763 762 761 759 758 756 756 755 754 753 752 751 751 751
796 796 795 795 794 793 793 792 791 790 789 789 788 787 786 785 784 784 783 782 782 781 780 779 779 778 777 777 776 776 775 775 774 774 773 773 772 772 771 770 770 768 766 766 766 766 766 766 766 766 765 765 764 764 763 762 760 759 758 756 755 754 753 753 752 751 751 750 750
797 796 796 795 794 793 793 792 791 790 789 789 788 787 786 785 784 783 783 782 781 781 780 779 778 777 776 776 775 775 775 774 774 773 773 773 772 771 771 770 770 768 766 766 766 766 766 766 766 765 765 764 764 763 762 761 759 758 756 755 754 753 752 751 751 750 750 749 749
797 797 796 795 794 794 793 792 791 790 789 788 787 787 786 785 784 783 782 782 781 780 779 778 777 776 776 775 775 775 774 774 773 773 773 772 772 771 770 770 769 768 767 766 766 766 766 765 765 765 764 764 763 762 761 760 758 757 756 754 753 752 751 751 750 750 749 749 748
797 797 796 795 794 794 793 792 791 790 789 788 787 787 786 785 784 783 782 781 780 779 778 777 776 776 775 775 775 774 774 774 773 773 772 772 771 771 770 769 769 768 767 766 765 765 765 765 765 764 764 763 763 762 761 759 758 756 755 754 752 751 751 751 750 749 748 748 747
797 797 796 795 794 793 792 792 791 790 789 788 787 786 785 784 783 782 781 781 780 779 778 777 776 775 775 775 775 774 774 773 773 772 772 771 771 770 770 769 768 768 767 766 765 765 764 764 764 763 763 763 762 761 760 759 757 756 755 753 752 751 751 750 749 749 748 747 746
797 797 796 795 794 793 792 792 791 790 788 787 787 786 785 784 783 782 781 780 779 778 778 777 776 775 775 775 774 774 773 773 772 772 771 771 770 769 769 769 768 767 767 766 765 764 764 763 763 763 763 762 762 761 760 759 757 756 754 753 752 751 750 749 749 748 747 746 746
797 796 796 795 794 793 792 791 790 789 788 787 786 785 784 783 782 782 781 780 779 779 778 777 776 775 775 774 774 773 773 772 772 771 771 770 769 768 768 768 767 767 766 766 765 764 763 763 762 762 762 762 761 761 760 758 757 756 754 753 752 751 750 749 748 747 746 746 745